Change the Weather History Date:

Thursday, January 2, 2014

  Actual Average Record
Temperature  
Mean Temperature -2 °F -  
Max Temperature 3 °F 27 °F 59 °F (2004)
Min Temperature -7 °F 5 °F -22 °F (1974)
Degree Days  
Heating Degree Days 67    
Moisture  
Dew Point -12 °F    
Average Humidity 64    
Maximum Humidity 100    
Minimum Humidity 24    
Precipitation  
Precipitation 0.00 in - - ()
Sea Level Pressure  
Sea Level Pressure 30.38 in    
Wind  
Wind Speed 5 mph (NNE)    
Max Wind Speed 15 mph    
Max Gust Speed 18 mph    
Visibility 10 miles    
Events      
Averages and records for this station are not official NWS values.
T = Trace of Precipitation, MM = Missing Value Source: NWS Daily Summary

Daily Weather History Graph

Daily Weather History Graph

Search for Another Location

Airport or City:

Trip Planner

Search our weather history database for the weather conditions in past years. The results will help you decide how hot, cold, wet, or windy it might be!

Date:

Astronomy

Jan. 02, 2014 Rise Set
Actual Time 8:00 AM CST 5:06 PM CST
Civil Twilight 7:28 AM CST 5:38 PM CST
Nautical Twilight 6:52 AM CST 6:14 PM CST
Astronomical Twilight 6:18 AM CST 6:48 PM CST
Moon 8:40 AM CST (1/2) 7:08 PM CST (1/2)
Length of Visible Light 10h 10m
Length of Day
9h 06m
Waxing Crescent, 3% of the Moon is Illuminated
Jan 2
Waxing Crescent
Jan 7
First Quarter
Jan 15
Full
Jan 23
Last Quarter
Jan 30
New

Hourly Weather History & Observations

Time (CST) Temp. Windchill Dew Point Humidity Pressure Visibility Wind Dir Wind Speed Gust Speed Precip Events Conditions
12:15 AM -5.8 °F -18.4 °F - N/A% 30.39 in 10.0 mi WNW 5.8 mph - N/A   Mostly Cloudy
12:35 AM -5.8 °F -14.5 °F -18.4 °F 55% 30.38 in 10.0 mi NW 3.5 mph - N/A   Partly Cloudy
12:55 AM -5.8 °F -16.7 °F -5.8 °F 100% 30.37 in 10.0 mi WNW 4.6 mph - N/A   Clear
1:15 AM -4.0 °F -12.4 °F -5.8 °F 92% 30.36 in 10.0 mi NW 3.5 mph - N/A   Partly Cloudy
1:35 AM -5.8 °F -16.7 °F -11.2 °F 77% 30.37 in 10.0 mi NW 4.6 mph - N/A   Scattered Clouds
1:55 AM -7.6 °F -20.6 °F -11.2 °F 84% 30.37 in 10.0 mi NW 5.8 mph - N/A   Partly Cloudy
2:15 AM -7.6 °F -18.8 °F -7.6 °F 100% 30.37 in 10.0 mi NW 4.6 mph - N/A   Clear
2:35 AM -7.6 °F -18.8 °F -9.4 °F 92% 30.37 in 10.0 mi NW 4.6 mph - N/A   Clear
2:55 AM -7.6 °F -18.8 °F -9.4 °F 92% 30.37 in 10.0 mi NW 4.6 mph - N/A   Clear
3:15 AM -7.6 °F -18.8 °F -11.2 °F 84% 30.37 in 10.0 mi NW 4.6 mph - N/A   Clear
3:35 AM -5.8 °F -18.4 °F -5.8 °F 100% 30.37 in 10.0 mi NW 5.8 mph - N/A   Clear
3:55 AM -5.8 °F -19.9 °F -11.2 °F 77% 30.36 in 10.0 mi WNW 6.9 mph - N/A   Clear
4:15 AM -4.0 °F -19.0 °F -7.6 °F 85% 30.38 in 10.0 mi NW 8.1 mph - N/A   Clear
4:35 AM -4.0 °F -14.6 °F -5.8 °F 92% 30.37 in 10.0 mi NW 4.6 mph - N/A   Clear
4:55 AM -4.0 °F - -9.4 °F 78% 30.36 in 10.0 mi Calm Calm - N/A   Partly Cloudy
5:15 AM -2.2 °F -12.5 °F -5.8 °F 85% 30.37 in 9.0 mi NW 4.6 mph - N/A   Mostly Cloudy
5:35 AM -2.2 °F -12.5 °F -5.8 °F 85% 30.37 in 10.0 mi NW 4.6 mph - N/A   Overcast
5:55 AM -2.2 °F -12.5 °F -4.0 °F 92% 30.38 in 10.0 mi WNW 4.6 mph - N/A   Overcast
6:15 AM -2.2 °F -14.2 °F -5.8 °F 85% 30.39 in 10.0 mi NW 5.8 mph - N/A   Overcast
6:35 AM -2.2 °F -15.6 °F -5.8 °F 85% 30.40 in 10.0 mi NW 6.9 mph - N/A   Overcast
6:55 AM -2.2 °F -15.6 °F -4.0 °F 92% 30.40 in 10.0 mi NW 6.9 mph - N/A   Overcast
7:15 AM -2.2 °F -14.2 °F -7.6 °F 78% 30.40 in 10.0 mi North 5.8 mph - N/A   Overcast
7:35 AM -2.2 °F -16.8 °F -5.8 °F 85% 30.40 in 10.0 mi NNW 8.1 mph - N/A   Overcast
7:55 AM -2.2 °F -12.5 °F -9.4 °F 71% 30.41 in 10.0 mi NNW 4.6 mph - N/A   Overcast
8:15 AM -2.2 °F -14.2 °F -9.4 °F 71% 30.41 in 10.0 mi North 5.8 mph - N/A   Overcast
8:35 AM -2.2 °F -14.2 °F -9.4 °F 71% 30.42 in 10.0 mi NNW 5.8 mph - N/A   Overcast
8:55 AM -2.2 °F -14.2 °F -9.4 °F 71% 30.43 in 10.0 mi NNW 5.8 mph - N/A   Overcast
9:15 AM -2.2 °F -14.2 °F -9.4 °F 71% 30.44 in 10.0 mi NNW 5.8 mph - N/A   Overcast
9:35 AM -2.2 °F -14.2 °F -9.4 °F 71% 30.45 in 10.0 mi NNW 5.8 mph - N/A   Overcast
9:55 AM -2.2 °F -14.2 °F -7.6 °F 78% 30.44 in 10.0 mi North 5.8 mph - N/A   Mostly Cloudy
10:15 AM -0.4 °F -10.4 °F -7.6 °F 72% 30.45 in 10.0 mi NNE 4.6 mph - N/A   Clear
10:35 AM -0.4 °F -12.0 °F -11.2 °F 60% 30.46 in 10.0 mi NE 5.8 mph - N/A   Clear
10:55 AM -0.4 °F -8.3 °F -2.2 °F 92% 30.46 in 10.0 mi NE 3.5 mph - N/A   Clear
11:15 AM 1.4 °F - -11.2 °F 56% 30.46 in 10.0 mi Calm Calm - N/A   Clear
11:35 AM 1.4 °F - -25.6 °F 27% 30.46 in 10.0 mi Calm Calm - N/A   Clear
11:55 AM 1.4 °F - -16.6 °F 43% 30.46 in 10.0 mi Calm Calm - N/A   Clear
12:15 PM 1.4 °F - -11.2 °F 56% 30.46 in 10.0 mi Calm Calm - N/A   Clear
12:35 PM 1.4 °F - -11.2 °F 56% 30.45 in 10.0 mi Calm Calm - N/A   Clear
12:55 PM 1.4 °F - - N/A% 30.44 in 10.0 mi Calm Calm - N/A   Clear
1:15 PM 3.2 °F - -11.2 °F 51% 30.43 in 10.0 mi Calm Calm - N/A   Clear
1:35 PM 3.2 °F - -9.4 °F 56% 30.42 in 10.0 mi Calm Calm - N/A   Clear
1:55 PM 3.2 °F - -9.4 °F 56% 30.41 in 10.0 mi Calm Calm - N/A   Clear
2:15 PM 3.2 °F - -9.4 °F 56% 30.42 in 10.0 mi Calm Calm - N/A   Clear
2:35 PM 3.2 °F -7.8 °F -7.6 °F 61% 30.42 in 10.0 mi SE 5.8 mph - N/A   Clear
2:55 PM 3.2 °F -6.2 °F -11.2 °F 51% 30.41 in 10.0 mi ESE 4.6 mph - N/A   Clear
3:15 PM 3.2 °F -6.2 °F -7.6 °F 61% 30.41 in 10.0 mi East 4.6 mph - N/A   Clear
3:35 PM 3.2 °F -4.2 °F -4.0 °F 72% 30.40 in 10.0 mi East 3.5 mph - N/A   Clear
3:55 PM 3.2 °F - -11.2 °F 51% 30.41 in 10.0 mi Calm Calm - N/A   Clear
4:15 PM 3.2 °F -4.2 °F -16.6 °F 39% 30.41 in 10.0 mi ESE 3.5 mph - N/A   Clear
4:35 PM 1.4 °F -9.9 °F -5.8 °F 72% 30.40 in 10.0 mi East 5.8 mph - N/A   Clear
4:55 PM 1.4 °F -6.2 °F -9.4 °F 61% 30.41 in 10.0 mi East 3.5 mph - N/A   Clear
5:15 PM 1.4 °F -9.9 °F -25.6 °F 27% 30.40 in 10.0 mi East 5.8 mph - N/A   Clear
5:35 PM -0.4 °F -8.3 °F -25.6 °F 30% 30.41 in 10.0 mi ESE 3.5 mph - N/A   Clear
5:55 PM -0.4 °F -10.4 °F -23.8 °F 32% 30.40 in 10.0 mi East 4.6 mph - N/A   Clear
6:15 PM -0.4 °F -12.0 °F -23.8 °F 32% 30.40 in 10.0 mi East 5.8 mph - N/A   Clear
6:35 PM -2.2 °F -12.5 °F -20.2 °F 42% 30.39 in 10.0 mi East 4.6 mph - N/A   Clear
6:55 PM -2.2 °F -14.2 °F -18.4 °F 46% 30.39 in 10.0 mi East 5.8 mph - N/A   Clear
7:15 PM -2.2 °F - -16.6 °F 50% 30.38 in 10.0 mi Calm Calm - N/A   Clear
7:35 PM -2.2 °F - -14.8 °F 55% 30.38 in 10.0 mi Calm Calm - N/A   Clear
7:55 PM -2.2 °F -14.2 °F -13.0 °F 60% 30.36 in 10.0 mi ESE 5.8 mph - N/A   Clear
8:15 PM -2.2 °F -15.6 °F -7.6 °F 78% 30.35 in 10.0 mi ESE 6.9 mph - N/A   Clear
8:35 PM -2.2 °F -14.2 °F - N/A% 30.33 in 10.0 mi SE 5.8 mph - N/A   Clear
8:55 PM -2.2 °F -16.8 °F -31.0 °F 24% 30.33 in 10.0 mi SE 8.1 mph - N/A   Clear
9:15 PM -0.4 °F -15.7 °F -23.8 °F 32% 30.32 in 10.0 mi SE 9.2 mph - N/A   Mostly Cloudy
9:35 PM -0.4 °F -13.4 °F -22.0 °F 36% 30.30 in 10.0 mi ESE 6.9 mph - N/A   Mostly Cloudy
9:55 PM -0.4 °F -14.7 °F -18.4 °F 43% 30.29 in 10.0 mi SE 8.1 mph - N/A   Partly Cloudy
10:15 PM -0.4 °F -16.7 °F -14.8 °F 51% 30.29 in 10.0 mi SE 10.4 mph - N/A   Clear
10:35 PM 1.4 °F -15.3 °F -11.2 °F 56% 30.28 in 10.0 mi SE 11.5 mph - N/A   Clear
10:55 PM 1.4 °F -14.5 °F -9.4 °F 61% 30.27 in 10.0 mi SSE 10.4 mph - N/A   Partly Cloudy
11:15 PM 3.2 °F -13.1 °F -18.4 °F 36% 30.26 in 10.0 mi SSE 11.5 mph - N/A   Scattered Clouds
11:35 PM 3.2 °F -15.3 °F -16.6 °F 39% 30.24 in 10.0 mi SSE 15.0 mph - N/A   Overcast
11:55 PM 3.2 °F -13.9 °F -16.6 °F 39% 30.22 in 10.0 mi SSE 12.7 mph 18.4 mph N/A   Overcast